Location: Molveno
(46.1500°N, 10.9667°E)
Time: 16:00:40
(UTC+00:00)

In-Cosmos 22 Rocket - Pass Details

Date: 05 July 2020
Orbit: 791 x 887 km, 81.2° (Epoch: 11 August)

Event Time Altitude Azimuth Distance (km) Brightness Sun altitude
Exits shadow 21:29:55 27° 169° (S) 1,490 4.9 -16.7°
Maximum altitude 21:32:47 63° 97° (E) 882 4.1 -16.9°
Drops below altitude 10° 21:38:03 10° 17° (NNE) 2,372 7.2 -17.3°
Sets 21:40:27 0° 14° (NNE) 3,312 8.1 -17.5°
